CLUSTER II-FM7 (SAMBA)

Last updated on Wed Sep 17 2025 00:03:34 GMT+0000 (Coordinated Universal Time)

1 26410U 00041A 25260.84392525 .00001144 00000+0 00000+0 0 9999 2 26410 146.0733 17.7134 8590429 233.1461 0.0988 0.44789089 19092
UTC large
Height (km)
Speed (km/s)
/
Latitude / Longitude
Inclination (degrees)
Orbital Period (minutes)
Azimuth
Elevation
Range (km)
Doppler Factor

Next 0 passes for location: London (51.5072 / 0.1276)

Sorry there are no passes over London.